STARLINK-32639 (62153 NORAD) Tracking and Keplerian Element Data

This shows tracking and keplerian element data for the satellite.

Feedback or suggestion? Click here.




ElementValue
Catalog62153
NameSTARLINK-32639
Epoch Orbit1111
Epoch Day34.02077404
Epoch Year2025
RAAN262.3265
Inclination43.0015
Eccentricity0.0001421
Argument of Perigee260.2426
Mean Anonmoly99.8267
Mean Motion15.32094503
Decay Rate2.85E-06
L11 62153U 24224Q 25034.02077404 .00000285 00000+0 17714-4 0 9997
L22 62153 43.0015 262.3265 0001421 260.2426 99.8267 15.32094503 11115



Live tracking and technical data element details for STARLINK-32639 (NORAD 62153). STARLINK-32639 can be tracked NOW for your location showing map with azimuth and elevation plus other details from your city location.







IsCatalogInMostPopularTable: catalog: 62153, numindb: 12
Update: records affected: 1



GetName: 62153 STARLINK-32639

Hit Count: updated at: Mon, 19 May 2025 03:31:23 GMT